Simultaneous Nadir Overpasses (SNOs) Predictions

Prediction of SNOs between GOES-17 and METOP-B Satellite Orbit:

Table of predicted SNOs for the next 14.0 days since TLE Epoch: 6/18/2021
Index Date Time (GOES-17) GOES-17 Lat,Lon METOP-B Lat,Lon Distance(km) Time Diff (sec)
1 06/19/2021 06:30:41 -0.03,-137.19 0.52,-134.80 272.53 80
2 06/20/2021 18:46:53 0.03,-137.19 0.49,-139.37 247.81 80
3 06/21/2021 18:28:54 0.03,-137.18 -0.59,-134.36 320.48 80
4 06/23/2021 06:45:15 -0.03,-137.16 -0.42,-138.96 205.49 80
5 06/24/2021 06:27:15 -0.03,-137.14 0.67,-133.96 362.13 80
6 06/25/2021 18:43:28 0.02,-137.12 0.35,-138.52 159.92 80
7 06/26/2021 18:25:29 0.02,-137.11 -0.79,-133.54 407.41 80
8 06/28/2021 06:44:30 -0.02,-137.08 -0.27,-138.12 119.36 80
9 06/29/2021 06:21:11 -0.02,-137.06 0.87,-133.14 447.89 80
10 06/30/2021 18:40:03 0.02,-137.04 0.15,-137.70 74.52 80
11 07/01/2021 18:22:04 0.02,-137.02 -0.93,-132.70 492.64 80
